N1DNE Weather Reports


Display with metric or nautical units.
time (UTC)temp
F
wind
direction
speed
MPH
gust
MPH
rain 1hr
in
rain 24hr
in
rain mn
in
humidity
%
barometer
mb
20260506204058 60 106 0.0 2.0 0.05 0.12 0.12 95 1004.8
20260506203056 60 106 0.0 2.0 0.04 0.11 0.11 94 1004.8
20260506202535 60 101 0.0 3.0 0.05 0.11 0.11 94 1004.8
20260506201537 60 170 0.0 2.0 0.04 0.10 0.10 94 1004.8
20260506200056 60 170 1.0 4.0 0.03 0.09 0.09 94 1004.8
20260506195542 60 171 1.0 5.0 0.02 0.08 0.08 94 1005.0
20260506194054 60 170 0.0 2.0 0.01 0.07 0.07 94 1005.0
20260506193054 60 170 0.0 4.0 0.02 0.07 0.07 94 1005.1
20260506192054 59 171 1.0 5.0 0.02 0.06 0.06 94 1005.2
20260506191055 59 171 1.0 6.0 0.03 0.06 0.06 94 1005.4
20260506190551 59 170 1.0 6.0 0.03 0.06 0.06 93 1005.3
20260506190018 59 188 1.0 6.0 0.03 0.06 0.06 93 1005.5
20260506184054 59 278 1.0 5.0 0.04 0.06 0.06 93 1005.5
20260506183529 60 182 1.0 6.0 0.04 0.05 0.05 93 1005.7
20260506182533 60 180 1.0 4.0 0.03 0.04 0.04 92 1005.8
20260506181049 60 234 1.0 4.0 0.03 0.03 0.04 92 1005.8
20260506181003 60 189 1.0 2.0 0.03 0.03 0.03 91 1005.7
20260506175049 61 189 1.0 4.0 0.03 0.03 0.03 90 1005.8
20260506174047 62 194 1.0 4.0 0.02 0.02 0.02 90 1005.8
20260506173048 62 170 1.0 5.0 0.01 0.01 0.01 88 1005.9
20260506172536 63 170 1.0 7.0 0.01 0.01 0.01 86 1006.4
20260506171527 64 170 1.0 4.0 0.00 0.00 0.00 84 1006.8
20260506170046 65 170 1.0 6.0 0.00 0.00 0.00 83 1006.9
20260506165043 66 166 0.0 3.0 0.00 0.00 0.00 81 1006.8
20260506165002 66 158 2.0 8.0 0.00 0.00 0.00 78 1006.9
20260506163043 67 175 2.0 8.0 0.00 0.00 0.00 77 1006.8
20260506162519 67 165 2.0 6.0 0.00 0.00 0.00 77 1006.7
20260506161520 67 171 1.0 6.0 0.00 0.00 0.00 76 1006.7
20260506160958 67 189 1.0 5.0 0.00 0.00 0.00 76 1006.8
20260506155524 67 189 1.0 4.0 0.00 0.00 0.00 75 1006.9
20260506154045 67 189 1.0 6.0 0.00 0.00 0.00 75 1007.2
20260506153037 67 171 2.0 8.0 0.00 0.00 0.00 75 1007.1
20260506152521 67 173 1.0 6.0 0.00 0.00 0.00 75 1007.1
20260506151523 67 167 2.0 7.0 0.00 0.00 0.00 76 1007.1
20260506150035 67 171 1.0 6.0 0.00 0.00 0.00 76 1007.0
20260506145036 67 171 2.0 8.0 0.00 0.00 0.00 77 1007.2
20260506144035 66 190 1.0 3.0 0.00 0.00 0.00 79 1007.1
20260506143035 66 190 0.0 2.0 0.00 0.00 0.00 79 1007.4
20260506142037 66 190 1.0 4.0 0.00 0.00 0.00 80 1007.3
20260506141038 65 235 2.0 7.0 0.00 0.00 0.00 80 1007.4
20260506140033 65 169 2.0 7.0 0.00 0.00 0.00 82 1007.4
20260506135526 64 190 1.0 8.0 0.00 0.00 0.00 82 1007.5
20260506134033 64 182 1.0 5.0 0.00 0.00 0.00 83 1007.2
20260506133034 64 182 1.0 4.0 0.00 0.00 0.00 84 1007.2
20260506132034 63 182 1.0 6.0 0.00 0.00 0.00 86 1007.2
20260506131032 62 186 0.0 3.0 0.00 0.00 0.00 87 1007.5
20260506130034 61 186 0.0 2.0 0.00 0.00 0.00 88 1007.5
20260506125520 61 186 0.0 2.0 0.00 0.00 0.00 88 1007.7
20260506124030 60 186 1.0 4.0 0.00 0.00 0.00 88 1007.8
20260506123031 60 186 1.0 6.0 0.00 0.00 0.00 88 1008.1
20260506122519 60 188 1.0 4.0 0.00 0.00 0.00 89 1008.1
20260506121032 59 188 1.0 7.0 0.00 0.00 0.00 89 1008.0
20260506120031 59 177 1.0 4.0 0.00 0.00 0.00 89 1007.9
20260506115032 59 177 0.0 2.0 0.00 0.00 0.00 90 1007.9
20260506114514 58 177 1.0 5.0 0.00 0.00 0.00 90 1007.9
20260506113032 58 177 1.0 9.0 0.00 0.00 0.00 90 1008.0
20260506112523 58 188 0.0 3.0 0.00 0.00 0.00 91 1007.9
20260506111505 57 188 0.0 3.0 0.00 0.00 0.00 91 1008.0
20260506110024 57 188 1.0 4.0 0.00 0.00 0.00 91 1008.3
20260506105023 57 188 1.0 3.0 0.00 0.00 0.00 91 1008.1
20260506104509 56 188 1.0 5.0 0.00 0.00 0.00 91 1007.9
20260506103506 56 188 0.0 2.0 0.00 0.00 0.00 92 1008.2
20260506102027 56 188 0.0 2.0 0.00 0.00 0.00 92 1008.0
20260506101025 56 188 0.0 2.0 0.00 0.00 0.00 91 1007.9
20260506100022 56 188 1.0 3.0 0.00 0.00 0.00 91 1007.8
20260506095024 56 188 1.0 4.0 0.00 0.00 0.00 91 1007.9
20260506094024 56 188 0.0 1.0 0.00 0.00 0.00 91 1007.8
20260506093023 56 188 1.0 3.0 0.00 0.00 0.00 91 1007.7
20260506092024 57 188 0.0 1.0 0.00 0.00 0.00 90 1007.8
20260506091023 57 188 0.0 2.0 0.00 0.00 0.00 90 1007.9
20260506090024 57 188 0.0 3.0 0.00 0.00 0.00 90 1007.9
20260506085453 57 188 0.0 1.0 0.00 0.00 0.00 89 1007.9
20260506084018 57 188 0.0 2.0 0.00 0.00 0.00 89 1007.9
20260506083420 58 194 1.0 4.0 0.00 0.00 0.00 89 1008.0
20260506083049 58 188 1.0 4.0 0.00 0.00 0.00 89 1007.9
20260506081456 58 194 1.0 4.0 0.00 0.00 0.00 89 1007.9
20260506080454 58 293 0.0 1.0 0.00 0.00 0.00 88 1007.8
20260506073016 58 165 0.0 5.0 0.00 0.00 0.00 87 1007.9
20260506072009 59 167 1.0 9.0 0.00 0.00 0.00 86 1007.9
20260506071011 59 178 1.0 3.0 0.00 0.00 0.00 86 1007.9
20260506062008 59 173 0.0 2.0 0.00 0.00 0.00 85 1007.7
20260506061456 60 173 0.0 1.0 0.00 0.00 0.00 83 1007.7
20260506060447 60 173 0.0 1.0 0.00 0.00 0.00 82 1007.7
20260506051003 61 173 0.0 2.0 0.00 0.00 0.00 79 1008.2
20260506045003 62 173 1.0 3.0 0.00 0.00 0.00 78 1008.1
20260506044445 62 173 0.0 2.0 0.00 0.00 0.00 78 1008.3
20260506043003 62 173 1.0 6.0 0.00 0.00 0.00 77 1008.2
20260506041957 62 175 0.0 3.0 0.00 0.00 0.00 77 1008.2
20260506040957 62 175 0.0 2.0 0.00 0.00 0.00 77 1008.2
20260506035957 62 175 1.0 6.0 0.00 0.00 0.00 76 1008.2
20260506035928 62 175 1.0 6.0 0.00 0.00 0.00 76 1008.2
20260506033956 62 175 0.0 3.0 0.00 0.00 0.00 76 1008.2
20260506032958 62 302 0.0 3.0 0.00 0.00 0.00 75 1008.2
20260506031958 62 165 1.0 7.0 0.00 0.00 0.00 75 1008.1
20260506030957 62 188 1.0 3.0 0.00 0.00 0.00 74 1008.2
20260506025959 62 188 0.0 2.0 0.00 0.00 0.00 74 1008.2
20260506024953 63 188 0.0 3.0 0.00 0.00 0.00 74 1008.1
20260506023951 63 188 0.0 4.0 0.00 0.00 0.00 73 1008.1
20260506023439 63 188 0.0 5.0 0.00 0.00 0.00 73 1008.0
20260506021950 63 188 0.0 4.0 0.00 0.00 0.00 72 1008.0
20260506020949 63 188 1.0 3.0 0.00 0.00 0.00 72 1008.0
20260506015949 63 188 1.0 5.0 0.00 0.00 0.00 72 1008.0
20260506014947 63 193 0.0 2.0 0.00 0.00 0.00 72 1008.0
20260506013948 64 233 0.0 2.0 0.00 0.00 0.00 71 1007.9
20260506012947 64 217 1.0 3.0 0.00 0.00 0.00 71 1007.7
20260506011941 64 181 1.0 3.0 0.00 0.00 0.00 71 1007.7
20260506010942 64 181 0.0 3.0 0.00 0.00 0.00 71 1007.4
20260506005940 64 181 0.0 1.0 0.00 0.00 0.00 70 1007.4
20260506004940 65 181 0.0 2.0 0.00 0.00 0.00 70 1007.3
20260506003941 65 181 1.0 3.0 0.00 0.00 0.00 69 1007.1
20260506002940 66 181 0.0 5.0 0.00 0.00 0.00 69 1007.0
20260506001940 66 273 0.0 1.0 0.00 0.00 0.00 68 1006.8
20260506000940 67 273 0.0 3.0 0.00 0.00 0.00 67 1006.6
20260505235943 67 273 0.0 1.0 0.00 0.00 0.00 66 1006.5
20260505234939 68 273 0.0 3.0 0.00 0.00 0.00 66 1006.4
20260505233940 69 273 1.0 5.0 0.00 0.00 0.00 64 1006.3
20260505232939 69 190 1.0 5.0 0.00 0.00 0.00 63 1006.2
20260505231940 69 211 2.0 6.0 0.00 0.00 0.00 62 1006.1
20260505230938 70 267 2.0 5.0 0.00 0.00 0.00 62 1006.0
20260505225939 70 171 2.0 7.0 0.00 0.00 0.00 62 1005.9
20260505224937 71 90 3.0 10.0 0.00 0.00 0.00 61 1005.8
20260505223938 71 166 2.0 8.0 0.00 0.00 0.00 61 1005.5
20260505222936 71 180 2.0 9.0 0.00 0.00 0.00 61 1005.5
20260505221938 71 173 2.0 9.0 0.00 0.00 0.00 61 1005.2
20260505220936 71 171 2.0 10.0 0.00 0.00 0.00 61 1005.5
20260505220425 72 183 3.0 10.0 0.00 0.00 0.00 61 1005.8
20260505214936 72 229 2.0 9.0 0.00 0.00 0.00 59 1005.6
20260505214419 73 243 2.0 10.0 0.00 0.00 0.00 60 1005.7
20260505212937 73 173 2.0 10.0 0.00 0.00 0.00 59 1005.5
20260505211936 74 185 1.0 8.0 0.00 0.00 0.00 59 1005.6
20260505210937 74 190 2.0 5.0 0.00 0.00 0.00 58 1005.4
20260505205934 75 174 3.0 11.0 0.00 0.00 0.00 57 1005.5
20260505204933 75 242 2.0 11.0 0.00 0.00 0.00 56 1005.3